Jacksonville, FL

7:12 PM EDT on August 24, 2016 (GMT -0400)
Jacksonville International

Weather History for KJAX - August, 2013

Change the Weather History Date:

Tuesday, August 20, 2013

  Actual Average Record
Temperature  
Mean Temperature 82 °F 82 °F  
Max Temperature 90 °F 91 °F 101 °F (1900)
Min Temperature 73 °F 73 °F 68 °F (1960)
Degree Days  
Heating Degree Days 0 0  
Month to date heating degree days 0 0  
Since 1 June heating degree days 0 0  
Since 1 July heating degree days 0 0  
Cooling Degree Days 17 17  
Month to date cooling degree days 362 341  
Year to date cooling degree days 1761 1810  
Since 1 June cooling degree days 1325 1326  
Growing Degree Days 32 (Base 50)    
Moisture  
Dew Point 74 °F    
Average Humidity 80    
Maximum Humidity 100    
Minimum Humidity 59    
Precipitation  
Precipitation T in 0.22 in 4.44 in (1873)
Month to date precipitation 3.84 4.08  
Year to date precipitation 34.25 32.64  
Snow  
Snow 0.00 in 0.00 in 0.00 in (2002)
Month to date snowfall 0.0 0.0  
Since 1 June snowfall 0.0 0.0  
Since 1 July snowfall 0.0 0.0  
Snow Depth 0.00 in    
Sea Level Pressure  
Sea Level Pressure 30.08 in    
Wind  
Wind Speed 4 mph (East)    
Max Wind Speed 15 mph    
Max Gust Speed 22 mph    
Visibility 10 miles    
Events Rain    
T = Trace of Precipitation, MM = Missing Value Source: NWS Daily Summary

Daily Weather History Graph

Daily Weather History Graph

Search for Another Location

Airport or City:

Trip Planner

Search our weather history database for the weather conditions in past years. The results will help you decide how hot, cold, wet, or windy it might be!

Date:

Astronomy

Aug. 20, 2013 Rise Set
Actual Time 6:56 AM EDT 8:03 PM EDT
Civil Twilight 6:31 AM EDT 8:28 PM EDT
Nautical Twilight 6:01 AM EDT 8:57 PM EDT
Astronomical Twilight 5:31 AM EDT 9:28 PM EDT
Moon 7:38 PM EDT (8/20) 6:23 AM EDT (8/20)
Length of Visible Light 13h 56m
Length of Day
13h 06m
Full, 100% of the Moon is Illuminated
Aug 20
Full
Aug 20
Full
Aug 28
Last Quarter
Sep 5
New
Sep 12
First Quarter

Hourly Weather History & Observations

Time (EDT) Temp. Heat Index Dew Point Humidity Pressure Visibility Wind Dir Wind Speed Gust Speed Precip Events Conditions
12:56 AM 75.0 °F - 73.0 °F 94% 30.09 in 10.0 mi North 4.6 mph - 0.02 in   Mostly Cloudy
1:56 AM 73.9 °F - 73.0 °F 97% 30.06 in 10.0 mi Calm Calm - 0.00 in   Mostly Cloudy
2:56 AM 73.9 °F - 72.0 °F 93% 30.04 in 10.0 mi Calm Calm - N/A   Scattered Clouds
3:56 AM 73.0 °F - 72.0 °F 96% 30.04 in 10.0 mi Calm Calm - N/A   Scattered Clouds
4:56 AM 73.0 °F - 72.0 °F 96% 30.03 in 10.0 mi Calm Calm - N/A   Partly Cloudy
5:56 AM 73.0 °F - 72.0 °F 96% 30.04 in 10.0 mi Calm Calm - N/A   Partly Cloudy
6:56 AM 73.0 °F - 72.0 °F 96% 30.05 in 10.0 mi Calm Calm - N/A   Scattered Clouds
7:56 AM 75.0 °F - 73.9 °F 96% 30.07 in 10.0 mi Calm Calm - N/A   Scattered Clouds
8:56 AM 80.1 °F 85.8 °F 77.0 °F 90% 30.08 in 10.0 mi Calm Calm - N/A   Scattered Clouds
9:45 AM 82.4 °F 90.9 °F 77.0 °F 84% 30.09 in 10.0 mi Calm Calm - N/A   Mostly Cloudy
9:56 AM 84.0 °F 93.7 °F 77.0 °F 79% 30.10 in 10.0 mi Calm Calm - N/A   Mostly Cloudy
10:56 AM 84.9 °F 95.3 °F 77.0 °F 77% 30.12 in 10.0 mi SSW 4.6 mph - N/A   Mostly Cloudy
11:37 AM 84.2 °F 90.9 °F 73.4 °F 70% 30.11 in 10.0 mi Calm Calm - N/A   Mostly Cloudy
11:56 AM 84.0 °F 92.6 °F 75.9 °F 76% 30.12 in 10.0 mi East 8.1 mph - 0.00 in Rain Light Rain
12:56 PM 84.0 °F 93.7 °F 77.0 °F 79% 30.11 in 10.0 mi North 6.9 mph - 0.00 in   Mostly Cloudy
1:56 PM 89.1 °F 99.1 °F 75.0 °F 63% 30.09 in 10.0 mi East 11.5 mph - N/A   Scattered Clouds
2:56 PM 90.0 °F 100.2 °F 75.0 °F 61% 30.07 in 10.0 mi East 10.4 mph - N/A   Mostly Cloudy
3:56 PM 89.1 °F 99.1 °F 75.0 °F 63% 30.04 in 10.0 mi ESE 10.4 mph - N/A   Mostly Cloudy
4:56 PM 88.0 °F 94.7 °F 72.0 °F 59% 30.06 in 10.0 mi SE 11.5 mph - N/A   Mostly Cloudy
5:56 PM 87.1 °F 93.6 °F 72.0 °F 61% 30.06 in 10.0 mi ESE 12.7 mph - N/A   Scattered Clouds
6:56 PM 84.0 °F 90.2 °F 73.0 °F 69% 30.05 in 10.0 mi East 9.2 mph - N/A   Scattered Clouds
7:56 PM 82.9 °F 90.2 °F 75.0 °F 77% 30.09 in 10.0 mi East 8.1 mph - N/A   Scattered Clouds
8:56 PM 81.0 °F 86.7 °F 75.0 °F 82% 30.11 in 10.0 mi East 5.8 mph - N/A   Scattered Clouds
9:56 PM 79.0 °F - 75.9 °F 90% 30.13 in 10.0 mi Calm Calm - N/A   Scattered Clouds
10:56 PM 78.1 °F - 75.9 °F 93% 30.14 in 10.0 mi Calm Calm - N/A   Partly Cloudy
11:56 PM 77.0 °F - 75.0 °F 94% 30.13 in 10.0 mi Calm Calm - N/A   Partly Cloudy